Time,TemperatureF,DewpointF,PressureIn,WindDirection,WindDirectionDegrees,WindSpeedMPH,WindSpeedGustMPH,Humidity,HourlyPrecipIn,Conditions,Clouds,dailyrainin,SoftwareType,DateUTC
2013-06-18 00:01:00,62.4,33.7,17.72,NE,38,0.0,0.0,34,0.00,,---,0.00,VWS V13.01,2013-06-18 04:01:00,
2013-06-18 00:06:00,62.4,33.7,17.72,NE,38,0.0,0.0,34,0.00,,---,0.00,VWS V13.01,2013-06-18 04:06:00,
2013-06-18 00:11:00,62.4,33.7,17.72,NE,38,0.0,0.0,34,0.00,,---,0.00,VWS V13.01,2013-06-18 04:11:00,
2013-06-18 00:16:00,62.2,33.5,17.72,NE,38,0.0,0.0,34,0.00,,---,0.00,VWS V13.01,2013-06-18 04:16:00,
2013-06-18 00:21:00,62.2,33.5,17.72,NE,38,0.0,0.0,34,0.00,,---,0.00,VWS V13.01,2013-06-18 04:21:00,
2013-06-18 00:26:00,61.9,33.2,17.72,NE,38,0.0,0.0,34,0.00,,---,0.00,VWS V13.01,2013-06-18 04:26:00,
2013-06-18 00:31:00,61.7,33.1,17.72,NE,38,0.0,0.0,34,0.00,,---,0.00,VWS V13.01,2013-06-18 04:31:00,
2013-06-18 00:36:00,61.3,32.8,17.72,NE,38,0.0,0.0,34,0.00,,---,0.00,VWS V13.01,2013-06-18 04:36:00,
2013-06-18 00:41:00,61.3,32.8,17.72,NE,38,0.0,0.0,34,0.00,,---,0.00,VWS V13.01,2013-06-18 04:41:00,
2013-06-18 00:46:00,61.2,32.6,17.72,East,86,0.0,0.0,34,0.00,,---,0.00,VWS V13.01,2013-06-18 04:46:00,
2013-06-18 00:51:00,61.2,32.6,17.72,East,88,0.0,3.6,34,0.00,,---,0.00,VWS V13.01,2013-06-18 04:51:00,
2013-06-18 00:56:00,61.2,32.6,17.72,ENE,72,0.0,0.0,34,0.00,,---,0.00,VWS V13.01,2013-06-18 04:56:00,
2013-06-18 01:01:00,61.3,32.8,17.72,ENE,72,0.0,0.0,34,0.00,,---,0.00,VWS V13.01,2013-06-18 05:01:00,
2013-06-18 01:06:00,61.3,32.8,17.72,ENE,78,0.0,0.0,34,0.00,,---,0.00,VWS V13.01,2013-06-18 05:06:00,
2013-06-18 01:11:00,61.3,32.8,17.72,ENE,78,0.0,0.0,34,0.00,,---,0.00,VWS V13.01,2013-06-18 05:11:00,
2013-06-18 01:16:00,61.3,32.8,17.72,ENE,78,0.0,0.0,34,0.00,,---,0.00,VWS V13.01,2013-06-18 05:16:00,
2013-06-18 01:21:00,61.5,32.9,17.72,ENE,78,0.0,0.0,34,0.00,,---,0.00,VWS V13.01,2013-06-18 05:21:00,
2013-06-18 01:26:00,61.3,32.8,17.72,NE,55,0.0,0.0,34,0.00,,---,0.00,VWS V13.01,2013-06-18 05:26:00,
2013-06-18 01:31:00,61.2,32.6,17.72,ENE,78,0.0,0.0,34,0.00,,---,0.00,VWS V13.01,2013-06-18 05:31:00,
2013-06-18 01:36:00,61.0,32.4,17.72,ENE,78,0.0,0.0,34,0.00,,---,0.00,VWS V13.01,2013-06-18 05:36:00,
2013-06-18 01:41:00,60.8,32.3,17.72,East,79,0.0,0.0,34,0.00,,---,0.00,VWS V13.01,2013-06-18 05:41:00,
2013-06-18 01:46:00,60.4,32.0,17.72,East,83,0.0,0.0,34,0.00,,---,0.00,VWS V13.01,2013-06-18 05:46:00,
2013-06-18 01:51:00,60.1,31.6,17.72,East,83,0.0,0.0,34,0.00,,---,0.00,VWS V13.01,2013-06-18 05:51:00,
2013-06-18 01:56:00,59.9,31.5,17.72,East,89,0.0,0.0,34,0.00,,---,0.00,VWS V13.01,2013-06-18 05:56:00,
2013-06-18 02:01:00,59.7,32.0,17.72,ENE,72,0.0,2.2,35,0.00,,---,0.00,VWS V13.01,2013-06-18 06:01:00,
2013-06-18 02:06:00,59.5,31.9,17.72,East,88,0.0,0.0,35,0.00,,---,0.00,VWS V13.01,2013-06-18 06:06:00,
2013-06-18 02:11:00,59.4,31.7,17.72,East,83,0.0,0.0,35,0.00,,---,0.00,VWS V13.01,2013-06-18 06:11:00,
2013-06-18 02:16:00,59.2,31.6,17.72,East,89,0.0,0.0,35,0.00,,---,0.00,VWS V13.01,2013-06-18 06:16:00,
2013-06-18 02:21:00,59.2,31.6,17.72,East,92,0.0,0.0,35,0.00,,---,0.00,VWS V13.01,2013-06-18 06:21:00,
2013-06-18 02:26:00,59.2,31.6,17.72,East,90,0.0,0.0,35,0.00,,---,0.00,VWS V13.01,2013-06-18 06:26:00,
2013-06-18 02:31:00,59.2,31.6,17.72,East,90,0.0,0.0,35,0.00,,---,0.00,VWS V13.01,2013-06-18 06:31:00,
2013-06-18 02:36:00,59.2,31.6,17.72,East,95,0.0,0.0,35,0.00,,---,0.00,VWS V13.01,2013-06-18 06:36:00,
2013-06-18 02:41:00,59.2,31.6,17.72,East,89,0.0,0.0,35,0.00,,---,0.00,VWS V13.01,2013-06-18 06:41:00,
2013-06-18 02:46:00,59.2,31.6,17.72,East,89,0.0,0.0,35,0.00,,---,0.00,VWS V13.01,2013-06-18 06:46:00,
2013-06-18 02:51:00,59.2,30.9,17.72,East,89,0.0,0.0,34,0.00,,---,0.00,VWS V13.01,2013-06-18 06:51:00,
2013-06-18 02:56:00,59.2,30.9,17.72,East,89,0.0,0.0,34,0.00,,---,0.00,VWS V13.01,2013-06-18 06:56:00,
2013-06-18 03:01:00,59.2,30.9,17.72,East,91,0.0,2.7,34,0.00,,---,0.00,VWS V13.01,2013-06-18 07:01:00,
2013-06-18 03:06:00,59.4,30.3,17.72,East,91,0.0,0.0,33,0.00,,---,0.00,VWS V13.01,2013-06-18 07:06:00,
2013-06-18 03:10:00,59.4,29.5,17.72,East,91,0.0,0.0,32,0.00,,---,0.00,VWS V13.01,2013-06-18 07:10:00,
2013-06-18 03:15:00,59.4,29.5,17.72,East,91,0.0,0.0,32,0.00,,---,0.00,VWS V13.01,2013-06-18 07:15:00,
2013-06-18 03:20:00,59.4,28.7,17.72,East,94,0.0,0.0,31,0.00,,---,0.00,VWS V13.01,2013-06-18 07:20:00,
2013-06-18 03:25:00,59.4,27.9,17.72,East,90,0.0,0.0,30,0.00,,---,0.00,VWS V13.01,2013-06-18 07:25:00,
2013-06-18 03:30:00,59.4,27.9,17.72,East,90,0.0,0.0,30,0.00,,---,0.00,VWS V13.01,2013-06-18 07:30:00,
2013-06-18 03:35:00,59.4,27.1,17.72,ENE,69,3.6,3.6,29,0.00,,---,0.00,VWS V13.01,2013-06-18 07:35:00,
2013-06-18 03:40:00,59.5,26.4,17.72,East,85,0.0,0.0,28,0.00,,---,0.00,VWS V13.01,2013-06-18 07:40:00,
2013-06-18 03:45:00,59.5,26.4,17.72,East,88,0.0,0.0,28,0.00,,---,0.00,VWS V13.01,2013-06-18 07:45:00,
2013-06-18 03:50:00,59.5,26.4,17.72,East,88,0.0,0.0,28,0.00,,---,0.00,VWS V13.01,2013-06-18 07:50:00,
2013-06-18 03:55:00,59.5,26.4,17.72,East,88,0.0,0.0,28,0.00,,---,0.00,VWS V13.01,2013-06-18 07:55:00,
2013-06-18 04:00:00,59.4,26.3,17.72,East,88,0.0,0.0,28,0.00,,---,0.00,VWS V13.01,2013-06-18 08:00:00,
2013-06-18 04:05:00,59.4,26.3,17.72,East,88,0.0,0.0,28,0.00,,---,0.00,VWS V13.01,2013-06-18 08:05:00,
2013-06-18 04:10:00,59.2,26.1,17.72,East,88,0.0,0.0,28,0.00,,---,0.00,VWS V13.01,2013-06-18 08:10:00,
2013-06-18 04:15:00,59.2,27.0,17.72,East,88,0.0,0.0,29,0.00,,---,0.00,VWS V13.01,2013-06-18 08:15:00,
2013-06-18 04:20:00,59.0,26.8,17.72,East,91,0.0,0.0,29,0.00,,---,0.00,VWS V13.01,2013-06-18 08:20:00,
2013-06-18 04:25:00,59.0,27.6,17.72,East,91,0.0,0.0,30,0.00,,---,0.00,VWS V13.01,2013-06-18 08:25:00,
2013-06-18 04:30:00,58.8,28.3,17.72,ENE,78,0.0,0.0,31,0.00,,---,0.00,VWS V13.01,2013-06-18 08:30:00,
2013-06-18 04:35:00,58.8,28.3,17.72,East,79,0.0,0.0,31,0.00,,---,0.00,VWS V13.01,2013-06-18 08:35:00,
2013-06-18 04:40:00,58.6,28.1,17.72,East,79,0.0,0.0,31,0.00,,---,0.00,VWS V13.01,2013-06-18 08:40:00,
2013-06-18 04:45:00,58.5,28.7,17.72,East,79,0.0,0.0,32,0.00,,---,0.00,VWS V13.01,2013-06-18 08:45:00,
2013-06-18 04:50:00,58.3,29.3,17.72,East,79,0.0,0.0,33,0.00,,---,0.00,VWS V13.01,2013-06-18 08:50:00,
2013-06-18 04:55:00,58.1,29.9,17.72,East,79,0.0,0.0,34,0.00,,---,0.00,VWS V13.01,2013-06-18 08:55:00,
2013-06-18 05:00:00,58.1,29.9,17.72,East,79,0.0,0.0,34,0.00,,---,0.00,VWS V13.01,2013-06-18 09:00:00,
2013-06-18 05:05:00,57.9,30.5,17.72,East,79,0.0,0.0,35,0.00,,---,0.00,VWS V13.01,2013-06-18 09:05:00,
2013-06-18 05:10:00,57.9,30.5,17.72,East,79,0.0,0.0,35,0.00,,---,0.00,VWS V13.01,2013-06-18 09:10:00,
2013-06-18 05:15:00,57.9,30.5,17.72,East,79,0.0,0.0,35,0.00,,---,0.00,VWS V13.01,2013-06-18 09:15:00,
2013-06-18 05:20:00,57.7,30.3,17.72,East,79,0.0,0.0,35,0.00,,---,0.00,VWS V13.01,2013-06-18 09:20:00,
2013-06-18 05:25:00,57.6,30.1,17.72,East,79,0.0,0.0,35,0.00,,---,0.00,VWS V13.01,2013-06-18 09:25:00,
2013-06-18 05:30:00,57.6,30.1,17.72,East,79,0.0,0.0,35,0.00,,---,0.00,VWS V13.01,2013-06-18 09:30:00,
2013-06-18 05:35:00,57.6,30.1,17.72,East,79,0.0,0.0,35,0.00,,---,0.00,VWS V13.01,2013-06-18 09:35:00,
2013-06-18 05:40:00,57.6,30.8,17.72,East,79,0.0,0.0,36,0.00,,---,0.00,VWS V13.01,2013-06-18 09:40:00,
2013-06-18 05:45:00,57.7,31.0,17.72,East,79,0.0,0.0,36,0.00,,---,0.00,VWS V13.01,2013-06-18 09:45:00,
2013-06-18 05:50:00,57.7,31.0,17.72,East,79,0.0,0.0,36,0.00,,---,0.00,VWS V13.01,2013-06-18 09:50:00,
2013-06-18 05:55:00,57.7,31.0,17.72,East,79,0.0,0.0,36,0.00,,---,0.00,VWS V13.01,2013-06-18 09:55:00,
2013-06-18 06:00:00,57.7,31.0,17.72,East,79,0.0,0.0,36,0.00,,---,0.00,VWS V13.01,2013-06-18 10:00:00,
2013-06-18 06:05:00,57.7,31.7,17.72,East,79,0.0,0.0,37,0.00,,---,0.00,VWS V13.01,2013-06-18 10:05:00,
2013-06-18 06:10:00,57.7,31.7,17.72,East,79,0.0,0.0,37,0.00,,---,0.00,VWS V13.01,2013-06-18 10:10:00,
2013-06-18 06:15:00,57.7,31.7,17.72,East,79,0.0,0.0,37,0.00,,---,0.00,VWS V13.01,2013-06-18 10:15:00,
2013-06-18 06:20:00,57.7,31.7,17.72,ENE,71,0.0,0.0,37,0.00,,---,0.00,VWS V13.01,2013-06-18 10:20:00,
2013-06-18 06:25:00,57.7,31.7,17.72,ENE,78,0.0,0.0,37,0.00,,---,0.00,VWS V13.01,2013-06-18 10:25:00,
2013-06-18 06:30:00,57.7,31.7,17.72,ENE,78,0.0,0.0,37,0.00,,---,0.00,VWS V13.01,2013-06-18 10:30:00,
2013-06-18 06:35:00,57.9,31.8,17.72,ENE,78,0.0,0.0,37,0.00,,---,0.00,VWS V13.01,2013-06-18 10:35:00,
2013-06-18 06:40:00,57.7,31.7,17.72,ENE,78,0.0,0.0,37,0.00,,---,0.00,VWS V13.01,2013-06-18 10:40:00,
2013-06-18 06:45:00,57.4,31.3,17.72,ENE,78,0.0,0.0,37,0.00,,---,0.00,VWS V13.01,2013-06-18 10:45:00,
2013-06-18 06:50:00,56.8,30.9,17.72,East,85,0.0,0.0,37,0.00,,---,0.00,VWS V13.01,2013-06-18 10:50:00,
2013-06-18 06:55:00,56.5,30.5,17.72,East,85,0.0,0.0,37,0.00,,---,0.00,VWS V13.01,2013-06-18 10:55:00,
2013-06-18 07:00:00,56.1,30.2,17.72,East,91,0.0,0.0,37,0.00,,---,0.00,VWS V13.01,2013-06-18 11:00:00,
2013-06-18 07:05:00,56.1,30.2,17.72,East,93,0.0,0.0,37,0.00,,---,0.00,VWS V13.01,2013-06-18 11:05:00,
2013-06-18 07:10:00,56.1,30.2,17.72,East,92,0.0,0.0,37,0.00,,---,0.00,VWS V13.01,2013-06-18 11:10:00,
2013-06-18 07:15:00,56.1,30.2,17.72,East,92,0.0,0.0,37,0.00,,---,0.00,VWS V13.01,2013-06-18 11:15:00,
2013-06-18 07:20:00,56.3,30.4,17.72,East,79,0.0,0.0,37,0.00,,---,0.00,VWS V13.01,2013-06-18 11:20:00,
2013-06-18 07:25:00,56.3,30.4,17.72,East,86,0.0,0.0,37,0.00,,---,0.00,VWS V13.01,2013-06-18 11:25:00,
2013-06-18 07:30:00,56.3,30.4,17.72,ENE,76,0.0,0.0,37,0.00,,---,0.00,VWS V13.01,2013-06-18 11:30:00,
2013-06-18 07:35:00,56.5,30.5,17.72,ENE,76,0.0,0.0,37,0.00,,---,0.00,VWS V13.01,2013-06-18 11:35:00,
2013-06-18 07:40:00,56.5,30.5,17.72,ENE,76,0.0,0.0,37,0.00,,---,0.00,VWS V13.01,2013-06-18 11:40:00,
2013-06-18 07:45:00,56.7,30.7,17.72,East,88,0.0,0.0,37,0.00,,---,0.00,VWS V13.01,2013-06-18 11:45:00,
2013-06-18 07:50:00,56.7,30.7,17.72,East,87,0.0,0.0,37,0.00,,---,0.00,VWS V13.01,2013-06-18 11:50:00,
2013-06-18 07:55:00,56.5,30.5,17.72,East,87,0.0,0.0,37,0.00,,---,0.00,VWS V13.01,2013-06-18 11:55:00,
2013-06-18 08:00:00,56.3,30.4,17.72,ESE,108,0.0,0.0,37,0.00,,---,0.00,VWS V13.01,2013-06-18 12:00:00,
2013-06-18 08:05:00,55.9,30.1,17.72,East,83,0.0,0.0,37,0.00,,---,0.00,VWS V13.01,2013-06-18 12:05:00,
2013-06-18 08:10:00,55.9,30.1,17.72,NNE,24,0.0,0.0,37,0.00,,---,0.00,VWS V13.01,2013-06-18 12:10:00,
2013-06-18 08:15:00,55.9,30.1,17.72,NNE,24,0.0,0.0,37,0.00,,---,0.00,VWS V13.01,2013-06-18 12:15:00,
2013-06-18 08:20:00,55.9,30.7,17.72,NNE,24,0.0,0.0,38,0.00,,---,0.00,VWS V13.01,2013-06-18 12:20:00,
2013-06-18 08:25:00,56.1,30.9,17.72,NNE,24,0.0,0.0,38,0.00,,---,0.00,VWS V13.01,2013-06-18 12:25:00,
2013-06-18 08:30:00,56.1,30.9,17.72,NNE,24,0.0,0.0,38,0.00,,---,0.00,VWS V13.01,2013-06-18 12:30:00,
2013-06-18 08:35:00,56.3,31.0,17.72,NNE,27,0.0,0.0,38,0.00,,---,0.00,VWS V13.01,2013-06-18 12:35:00,
2013-06-18 08:40:00,56.7,31.4,17.72,East,80,3.1,3.1,38,0.00,,---,0.00,VWS V13.01,2013-06-18 12:40:00,
2013-06-18 08:45:00,56.8,31.5,17.72,East,91,2.7,2.7,38,0.00,,---,0.00,VWS V13.01,2013-06-18 12:45:00,
2013-06-18 08:50:00,56.8,31.5,17.72,NNE,23,3.1,3.1,38,0.00,,---,0.00,VWS V13.01,2013-06-18 12:50:00,
2013-06-18 08:55:00,56.8,30.9,17.72,East,91,0.0,0.0,37,0.00,,---,0.00,VWS V13.01,2013-06-18 12:55:00,
2013-06-18 09:00:00,56.7,30.7,17.72,ENE,77,2.7,2.7,37,0.00,,---,0.00,VWS V13.01,2013-06-18 13:00:00,
2013-06-18 09:05:00,56.7,30.7,17.72,East,85,3.6,3.6,37,0.00,,---,0.00,VWS V13.01,2013-06-18 13:05:00,
2013-06-18 09:10:00,56.7,30.7,17.72,ENE,64,0.0,0.0,37,0.00,,---,0.00,VWS V13.01,2013-06-18 13:10:00,
2013-06-18 09:15:00,56.7,30.0,17.72,East,79,2.2,2.2,36,0.00,,---,0.00,VWS V13.01,2013-06-18 13:15:00,
2013-06-18 09:20:00,56.7,30.0,17.72,ENE,78,0.0,0.0,36,0.00,,---,0.00,VWS V13.01,2013-06-18 13:20:00,
2013-06-18 09:25:00,56.7,30.0,17.72,ENE,78,0.0,0.0,36,0.00,,---,0.00,VWS V13.01,2013-06-18 13:25:00,
2013-06-18 09:30:00,56.8,30.2,17.72,ENE,78,0.0,0.0,36,0.00,,---,0.00,VWS V13.01,2013-06-18 13:30:00,
2013-06-18 09:35:00,56.8,30.2,17.72,ENE,78,0.0,0.0,36,0.00,,---,0.00,VWS V13.01,2013-06-18 13:35:00,
2013-06-18 09:40:00,56.8,30.2,17.72,ENE,78,0.0,0.0,36,0.00,,---,0.00,VWS V13.01,2013-06-18 13:40:00,
2013-06-18 09:45:00,57.0,31.7,17.72,East,83,2.7,2.7,38,0.00,,---,0.00,VWS V13.01,2013-06-18 13:45:00,
2013-06-18 09:50:00,57.2,31.2,17.72,East,83,2.7,2.7,37,0.00,,---,0.00,VWS V13.01,2013-06-18 13:50:00,
2013-06-18 09:55:00,57.4,31.3,17.72,East,83,2.7,2.7,37,0.00,,---,0.00,VWS V13.01,2013-06-18 13:55:00,
2013-06-18 10:00:00,57.6,30.8,17.72,East,83,2.7,2.7,36,0.00,,---,0.00,VWS V13.01,2013-06-18 14:00:00,
2013-06-18 10:05:00,57.7,31.0,17.72,East,83,2.7,2.7,36,0.00,,---,0.00,VWS V13.01,2013-06-18 14:05:00,
2013-06-18 10:10:00,58.1,31.3,17.72,East,83,2.7,2.7,36,0.00,,---,0.00,VWS V13.01,2013-06-18 14:10:00,
2013-06-18 10:15:00,58.5,30.9,17.72,East,83,2.7,2.7,35,0.00,,---,0.00,VWS V13.01,2013-06-18 14:15:00,
2013-06-18 10:20:00,58.8,31.2,17.72,East,83,2.7,2.7,35,0.00,,---,0.00,VWS V13.01,2013-06-18 14:20:00,
2013-06-18 10:25:00,58.8,30.5,17.72,East,83,2.7,2.7,34,0.00,,---,0.00,VWS V13.01,2013-06-18 14:25:00,
2013-06-18 10:30:00,59.2,30.9,17.72,East,83,2.7,2.7,34,0.00,,---,0.00,VWS V13.01,2013-06-18 14:30:00,
2013-06-18 10:35:00,59.4,29.5,17.72,East,83,2.7,2.7,32,0.00,,---,0.00,VWS V13.01,2013-06-18 14:35:00,
2013-06-18 10:40:00,59.5,31.9,17.72,East,83,2.7,2.7,35,0.00,,---,0.00,VWS V13.01,2013-06-18 14:40:00,
2013-06-18 10:45:00,59.9,29.2,17.72,East,83,2.7,2.7,31,0.00,,---,0.00,VWS V13.01,2013-06-18 14:45:00,
2013-06-18 10:50:00,60.1,28.6,17.72,East,83,2.7,2.7,30,0.00,,---,0.00,VWS V13.01,2013-06-18 14:50:00,
2013-06-18 10:55:00,60.1,28.6,17.72,East,83,2.7,2.7,30,0.00,,---,0.00,VWS V13.01,2013-06-18 14:55:00,
2013-06-18 11:00:00,60.3,27.9,17.72,East,83,2.7,2.7,29,0.00,,---,0.00,VWS V13.01,2013-06-18 15:00:00,
2013-06-18 11:05:00,60.3,27.0,17.72,East,83,2.7,2.7,28,0.00,,---,0.00,VWS V13.01,2013-06-18 15:05:00,
2013-06-18 11:10:00,60.4,27.2,17.72,East,83,2.7,2.7,28,0.00,,---,0.00,VWS V13.01,2013-06-18 15:10:00,
2013-06-18 11:15:00,60.3,26.2,17.72,ENE,65,0.0,0.0,27,0.00,,---,0.00,VWS V13.01,2013-06-18 15:15:00,
2013-06-18 11:20:00,59.9,25.9,17.72,SSE,156,3.1,3.1,27,0.00,,---,0.00,VWS V13.01,2013-06-18 15:20:00,
2013-06-18 11:25:00,59.7,25.7,17.72,NE,51,0.0,0.0,27,0.00,,---,0.00,VWS V13.01,2013-06-18 15:25:00,
2013-06-18 11:30:00,59.5,24.6,17.72,East,81,4.0,4.0,26,0.00,,---,0.00,VWS V13.01,2013-06-18 15:30:00,
2013-06-18 11:35:00,59.7,25.7,17.72,ENE,78,0.0,0.0,27,0.00,,---,0.00,VWS V13.01,2013-06-18 15:35:00,
2013-06-18 11:40:00,60.1,26.0,17.72,East,81,5.8,5.8,27,0.00,,---,0.00,VWS V13.01,2013-06-18 15:40:00,
2013-06-18 11:45:00,60.3,26.2,17.72,East,81,5.8,5.8,27,0.00,,---,0.00,VWS V13.01,2013-06-18 15:45:00,
2013-06-18 11:50:00,60.4,25.4,17.72,East,81,5.8,5.8,26,0.00,,---,0.00,VWS V13.01,2013-06-18 15:50:00,
2013-06-18 11:55:00,60.4,25.4,17.72,East,81,5.8,5.8,26,0.00,,---,0.00,VWS V13.01,2013-06-18 15:55:00,
2013-06-18 12:00:00,60.4,25.4,17.72,East,83,4.9,4.9,26,0.00,,---,0.00,VWS V13.01,2013-06-18 16:00:00,
2013-06-18 12:05:00,60.1,25.1,17.72,NNE,31,0.0,0.0,26,0.00,,---,0.00,VWS V13.01,2013-06-18 16:05:00,
2013-06-18 12:10:00,60.1,25.1,17.72,East,87,2.7,2.7,26,0.00,,---,0.00,VWS V13.01,2013-06-18 16:10:00,
2013-06-18 12:15:00,59.9,24.0,17.72,East,89,5.4,5.4,25,0.00,,---,0.00,VWS V13.01,2013-06-18 16:15:00,
2013-06-18 12:20:00,59.7,24.8,17.72,East,89,5.4,5.4,26,0.00,,---,0.00,VWS V13.01,2013-06-18 16:20:00,
2013-06-18 12:25:00,59.7,24.8,17.72,East,89,5.4,5.4,26,0.00,,---,0.00,VWS V13.01,2013-06-18 16:25:00,
2013-06-18 12:30:00,59.7,24.8,17.72,ESE,107,2.7,5.8,26,0.00,,---,0.00,VWS V13.01,2013-06-18 16:30:00,
2013-06-18 12:35:00,59.7,25.7,17.72,East,84,2.7,2.7,27,0.00,,---,0.00,VWS V13.01,2013-06-18 16:35:00,
2013-06-18 12:40:00,59.9,25.9,17.72,East,84,2.7,2.7,27,0.00,,---,0.00,VWS V13.01,2013-06-18 16:40:00,
2013-06-18 12:45:00,60.3,26.2,17.72,East,98,0.0,0.0,27,0.00,,---,0.00,VWS V13.01,2013-06-18 16:45:00,
2013-06-18 12:50:00,60.4,26.3,17.72,East,94,0.0,4.0,27,0.00,,---,0.00,VWS V13.01,2013-06-18 16:50:00,
2013-06-18 12:55:00,60.6,27.4,17.72,ENE,78,2.7,2.7,28,0.00,,---,0.00,VWS V13.01,2013-06-18 16:55:00,
2013-06-18 13:00:00,61.2,26.9,17.72,ESE,108,4.9,4.9,27,0.00,,---,0.00,VWS V13.01,2013-06-18 17:00:00,
2013-06-18 13:05:00,61.0,26.8,17.72,ENE,72,2.7,2.7,27,0.00,,---,0.00,VWS V13.01,2013-06-18 17:05:00,
2013-06-18 13:10:00,60.8,26.6,17.72,ESE,104,0.0,0.0,27,0.00,,---,0.00,VWS V13.01,2013-06-18 17:10:00,
2013-06-18 13:15:00,61.3,27.1,17.72,NNE,17,0.0,0.0,27,0.00,,---,0.00,VWS V13.01,2013-06-18 17:15:00,
2013-06-18 13:20:00,61.5,27.2,17.72,NNE,17,0.0,0.0,27,0.00,,---,0.00,VWS V13.01,2013-06-18 17:20:00,
2013-06-18 13:25:00,61.3,27.1,17.72,NNE,17,0.0,0.0,27,0.00,,---,0.00,VWS V13.01,2013-06-18 17:25:00,
2013-06-18 13:30:00,61.2,26.9,17.72,ESE,104,0.0,0.0,27,0.00,,---,0.00,VWS V13.01,2013-06-18 17:30:00,
2013-06-18 13:35:00,61.3,27.1,17.72,East,92,0.0,2.7,27,0.00,,---,0.00,VWS V13.01,2013-06-18 17:35:00,
2013-06-18 13:40:00,61.9,27.6,17.72,NNE,25,3.1,3.1,27,0.00,,---,0.00,VWS V13.01,2013-06-18 17:40:00,
2013-06-18 13:45:00,62.4,28.0,17.72,NNE,26,0.0,0.0,27,0.00,,---,0.00,VWS V13.01,2013-06-18 17:45:00,
2013-06-18 13:50:00,63.0,27.6,17.72,East,96,0.0,0.0,26,0.00,,---,0.00,VWS V13.01,2013-06-18 17:50:00,
2013-06-18 13:55:00,63.0,26.6,17.72,East,96,0.0,0.0,25,0.00,,---,0.00,VWS V13.01,2013-06-18 17:55:00,
2013-06-18 14:00:00,63.1,25.8,17.72,East,96,0.0,0.0,24,0.00,,---,0.00,VWS V13.01,2013-06-18 18:00:00,
2013-06-18 14:05:00,63.5,26.1,17.72,East,86,0.0,0.0,24,0.00,,---,0.00,VWS V13.01,2013-06-18 18:05:00,
2013-06-18 14:10:00,63.9,26.4,17.72,East,97,0.0,0.0,24,0.00,,---,0.00,VWS V13.01,2013-06-18 18:10:00,
2013-06-18 14:15:00,64.4,25.8,17.72,NNE,16,0.0,0.0,23,0.00,,---,0.00,VWS V13.01,2013-06-18 18:15:00,
2013-06-18 14:20:00,65.3,26.6,17.72,NNE,16,0.0,0.0,23,0.00,,---,0.00,VWS V13.01,2013-06-18 18:20:00,
2013-06-18 14:25:00,65.7,26.9,17.72,NNE,16,0.0,0.0,23,0.00,,---,0.00,VWS V13.01,2013-06-18 18:25:00,
2013-06-18 14:30:00,65.8,27.0,17.72,ENE,75,0.0,0.0,23,0.00,,---,0.00,VWS V13.01,2013-06-18 18:30:00,
2013-06-18 14:35:00,66.0,23.8,17.72,ENE,75,0.0,0.0,20,0.00,,---,0.00,VWS V13.01,2013-06-18 18:35:00,
2013-06-18 14:40:00,66.4,24.1,17.72,ENE,75,0.0,0.0,20,0.00,,---,0.00,VWS V13.01,2013-06-18 18:40:00,
2013-06-18 14:45:00,66.0,21.3,17.72,ENE,75,0.0,0.0,18,0.00,,---,0.00,VWS V13.01,2013-06-18 18:45:00,
2013-06-18 14:50:00,66.2,20.1,17.72,ENE,75,0.0,0.0,17,0.00,,---,0.00,VWS V13.01,2013-06-18 18:50:00,
2013-06-18 14:55:00,66.6,20.4,17.72,NNE,28,0.0,0.0,17,0.00,,---,0.00,VWS V13.01,2013-06-18 18:55:00,
2013-06-18 15:00:00,66.4,17.4,17.72,East,82,2.7,2.7,15,0.00,,---,0.00,VWS V13.01,2013-06-18 19:00:00,
2013-06-18 15:05:00,66.2,17.2,17.72,ENE,78,0.0,0.0,15,0.00,,---,0.00,VWS V13.01,2013-06-18 19:05:00,
2013-06-18 15:10:00,66.2,17.2,17.72,East,92,0.0,0.0,15,0.00,,---,0.00,VWS V13.01,2013-06-18 19:10:00,
2013-06-18 15:15:00,66.7,17.6,17.72,East,91,2.7,2.7,15,0.00,,---,0.00,VWS V13.01,2013-06-18 19:15:00,
2013-06-18 15:20:00,67.1,17.9,17.72,ENE,75,0.0,2.7,15,0.00,,---,0.00,VWS V13.01,2013-06-18 19:20:00,
2013-06-18 15:25:00,67.6,18.4,17.72,East,90,2.2,2.2,15,0.00,,---,0.00,VWS V13.01,2013-06-18 19:25:00,
2013-06-18 15:30:00,68.0,18.7,17.72,ENE,69,0.0,0.0,15,0.00,,---,0.00,VWS V13.01,2013-06-18 19:30:00,
2013-06-18 15:35:00,68.0,13.5,17.72,ENE,60,2.2,2.2,12,0.00,,---,0.00,VWS V13.01,2013-06-18 19:35:00,
2013-06-18 15:40:00,67.8,13.4,17.72,ESE,106,0.0,0.0,12,0.00,,---,0.00,VWS V13.01,2013-06-18 19:40:00,
2013-06-18 15:45:00,67.8,13.4,17.72,East,94,2.7,2.7,12,0.00,,---,0.00,VWS V13.01,2013-06-18 19:45:00,
2013-06-18 15:50:00,68.2,13.7,17.72,NE,43,0.0,0.0,12,0.00,,---,0.00,VWS V13.01,2013-06-18 19:50:00,
2013-06-18 15:55:00,68.5,13.9,17.72,ENE,67,0.0,0.0,12,0.00,,---,0.00,VWS V13.01,2013-06-18 19:55:00,
2013-06-18 15:59:00,69.1,14.4,17.72,ENE,67,0.0,0.0,12,0.00,,---,0.00,VWS V13.01,2013-06-18 19:59:00,
2013-06-18 16:04:00,68.9,14.2,17.72,ENE,67,0.0,0.0,12,0.00,,---,0.00,VWS V13.01,2013-06-18 20:04:00,
2013-06-18 16:09:00,68.7,14.1,17.72,ENE,77,3.1,3.1,12,0.00,,---,0.00,VWS V13.01,2013-06-18 20:09:00,
2013-06-18 16:14:00,68.5,13.9,17.72,ENE,77,3.1,3.1,12,0.00,,---,0.00,VWS V13.01,2013-06-18 20:14:00,
2013-06-18 16:19:00,68.4,13.8,17.72,ENE,77,3.1,3.1,12,0.00,,---,0.00,VWS V13.01,2013-06-18 20:19:00,
2013-06-18 16:24:00,68.5,13.9,17.72,NE,49,0.0,0.0,12,0.00,,---,0.00,VWS V13.01,2013-06-18 20:24:00,
2013-06-18 16:29:00,69.1,14.4,17.72,East,94,0.0,0.0,12,0.00,,---,0.00,VWS V13.01,2013-06-18 20:29:00,
2013-06-18 16:34:00,69.1,14.4,17.72,NNE,20,0.0,0.0,12,0.00,,---,0.00,VWS V13.01,2013-06-18 20:34:00,
2013-06-18 16:39:00,69.1,14.4,17.72,East,87,0.0,0.0,12,0.00,,---,0.00,VWS V13.01,2013-06-18 20:39:00,
2013-06-18 16:44:00,68.9,14.2,17.72,East,87,0.0,0.0,12,0.00,,---,0.00,VWS V13.01,2013-06-18 20:44:00,
2013-06-18 16:49:00,68.7,14.1,17.72,East,87,0.0,0.0,12,0.00,,---,0.00,VWS V13.01,2013-06-18 20:49:00,
2013-06-18 16:54:00,69.1,14.4,17.72,East,87,0.0,0.0,12,0.00,,---,0.00,VWS V13.01,2013-06-18 20:54:00,
2013-06-18 16:59:00,69.1,14.4,17.72,East,87,0.0,0.0,12,0.00,,---,0.00,VWS V13.01,2013-06-18 20:59:00,
2013-06-18 17:04:00,68.7,14.1,17.72,East,87,0.0,0.0,12,0.00,,---,0.00,VWS V13.01,2013-06-18 21:04:00,
2013-06-18 17:09:00,68.9,14.2,17.72,East,87,0.0,0.0,12,0.00,,---,0.00,VWS V13.01,2013-06-18 21:09:00,
2013-06-18 17:14:00,68.5,13.9,17.72,East,87,0.0,0.0,12,0.00,,---,0.00,VWS V13.01,2013-06-18 21:14:00,
2013-06-18 17:19:00,68.5,13.9,17.72,East,87,0.0,0.0,12,0.00,,---,0.00,VWS V13.01,2013-06-18 21:19:00,
2013-06-18 17:24:00,68.7,14.1,17.72,East,87,0.0,0.0,12,0.00,,---,0.00,VWS V13.01,2013-06-18 21:24:00,
2013-06-18 17:29:00,68.4,13.8,17.72,East,87,0.0,0.0,12,0.00,,---,0.00,VWS V13.01,2013-06-18 21:29:00,
2013-06-18 17:34:00,68.0,13.5,17.72,East,87,0.0,0.0,12,0.00,,---,0.00,VWS V13.01,2013-06-18 21:34:00,
2013-06-18 17:39:00,68.0,13.5,17.72,East,87,0.0,0.0,12,0.00,,---,0.00,VWS V13.01,2013-06-18 21:39:00,
2013-06-18 17:44:00,67.8,13.4,17.72,East,87,0.0,0.0,12,0.00,,---,0.00,VWS V13.01,2013-06-18 21:44:00,
2013-06-18 17:49:00,67.6,13.2,17.72,East,80,0.0,0.0,12,0.00,,---,0.00,VWS V13.01,2013-06-18 21:49:00,
2013-06-18 17:54:00,67.8,13.4,17.72,NNE,25,0.0,0.0,12,0.00,,---,0.00,VWS V13.01,2013-06-18 21:54:00,
2013-06-18 17:59:00,67.8,13.4,17.72,NNE,25,0.0,0.0,12,0.00,,---,0.00,VWS V13.01,2013-06-18 21:59:00,
2013-06-18 18:04:00,67.8,13.4,17.72,NNE,30,0.0,0.0,12,0.00,,---,0.00,VWS V13.01,2013-06-18 22:04:00,
2013-06-18 18:09:00,67.6,13.2,17.72,NNE,30,0.0,0.0,12,0.00,,---,0.00,VWS V13.01,2013-06-18 22:09:00,
2013-06-18 18:14:00,67.5,13.1,17.72,NNE,30,0.0,0.0,12,0.00,,---,0.00,VWS V13.01,2013-06-18 22:14:00,
2013-06-18 18:19:00,67.1,12.8,17.72,NNE,30,0.0,0.0,12,0.00,,---,0.00,VWS V13.01,2013-06-18 22:19:00,
2013-06-18 18:24:00,67.1,12.8,17.72,NNE,30,0.0,0.0,12,0.00,,---,0.00,VWS V13.01,2013-06-18 22:24:00,
2013-06-18 18:29:00,67.1,12.8,17.72,NNE,30,0.0,0.0,12,0.00,,---,0.00,VWS V13.01,2013-06-18 22:29:00,
2013-06-18 18:34:00,67.5,13.1,17.72,ENE,76,0.0,0.0,12,0.00,,---,0.00,VWS V13.01,2013-06-18 22:34:00,
2013-06-18 18:39:00,67.3,13.0,17.72,ENE,76,0.0,0.0,12,0.00,,---,0.00,VWS V13.01,2013-06-18 22:39:00,
2013-06-18 18:44:00,66.9,12.7,17.72,ENE,76,0.0,0.0,12,0.00,,---,0.00,VWS V13.01,2013-06-18 22:44:00,
2013-06-18 18:49:00,67.1,12.8,17.72,ENE,76,0.0,0.0,12,0.00,,---,0.00,VWS V13.01,2013-06-18 22:49:00,
2013-06-18 18:54:00,66.9,12.7,17.72,ENE,76,0.0,0.0,12,0.00,,---,0.00,VWS V13.01,2013-06-18 22:54:00,
2013-06-18 18:59:00,66.6,12.4,17.72,ENE,76,0.0,0.0,12,0.00,,---,0.00,VWS V13.01,2013-06-18 22:59:00,
2013-06-18 19:04:00,66.2,12.1,17.72,ENE,72,0.0,0.0,12,0.00,,---,0.00,VWS V13.01,2013-06-18 23:04:00,
2013-06-18 19:09:00,66.0,13.8,17.72,ENE,72,0.0,0.0,13,0.00,,---,0.00,VWS V13.01,2013-06-18 23:09:00,
2013-06-18 19:14:00,65.7,13.5,17.72,ENE,72,0.0,0.0,13,0.00,,---,0.00,VWS V13.01,2013-06-18 23:14:00,
2013-06-18 19:19:00,65.3,13.2,17.72,ENE,72,0.0,0.0,13,0.00,,---,0.00,VWS V13.01,2013-06-18 23:19:00,
2013-06-18 19:24:00,64.8,12.8,17.72,ENE,72,0.0,0.0,13,0.00,,---,0.00,VWS V13.01,2013-06-18 23:24:00,
2013-06-18 19:29:00,64.2,12.4,17.72,ENE,72,0.0,0.0,13,0.00,,---,0.00,VWS V13.01,2013-06-18 23:29:00,
2013-06-18 19:34:00,63.9,12.1,17.72,ENE,72,0.0,0.0,13,0.00,,---,0.00,VWS V13.01,2013-06-18 23:34:00,
2013-06-18 19:39:00,63.3,11.7,17.72,ENE,72,0.0,0.0,13,0.00,,---,0.00,VWS V13.01,2013-06-18 23:39:00,
2013-06-18 19:44:00,63.0,11.4,17.72,ENE,72,0.0,0.0,13,0.00,,---,0.00,VWS V13.01,2013-06-18 23:44:00,
2013-06-18 19:49:00,62.8,11.2,17.72,ENE,72,0.0,0.0,13,0.00,,---,0.00,VWS V13.01,2013-06-18 23:49:00,
2013-06-18 19:54:00,62.4,15.7,17.72,ENE,72,0.0,0.0,16,0.00,,---,0.00,VWS V13.01,2013-06-18 23:54:00,
2013-06-18 19:59:00,62.2,15.5,17.72,ENE,72,0.0,0.0,16,0.00,,---,0.00,VWS V13.01,2013-06-18 23:59:00,
2013-06-18 20:04:00,61.9,15.2,17.72,ENE,72,0.0,0.0,16,0.00,,---,0.00,VWS V13.01,2013-06-19 00:04:00,
2013-06-18 20:09:00,61.5,18.9,17.72,ENE,72,0.0,0.0,19,0.00,,---,0.00,VWS V13.01,2013-06-19 00:09:00,
2013-06-18 20:14:00,61.2,18.6,17.72,ENE,72,0.0,0.0,19,0.00,,---,0.00,VWS V13.01,2013-06-19 00:14:00,
2013-06-18 20:19:00,60.6,18.2,17.72,ENE,72,0.0,0.0,19,0.00,,---,0.00,VWS V13.01,2013-06-19 00:19:00,
2013-06-18 20:24:00,60.4,21.4,17.72,ENE,72,0.0,0.0,22,0.00,,---,0.00,VWS V13.01,2013-06-19 00:24:00,
2013-06-18 20:29:00,60.1,23.2,17.72,ENE,72,0.0,0.0,24,0.00,,---,0.00,VWS V13.01,2013-06-19 00:29:00,
2013-06-18 20:34:00,59.9,23.0,17.72,ENE,72,0.0,0.0,24,0.00,,---,0.00,VWS V13.01,2013-06-19 00:34:00,
2013-06-18 20:39:00,59.7,22.9,17.72,ENE,72,0.0,0.0,24,0.00,,---,0.00,VWS V13.01,2013-06-19 00:39:00,
2013-06-18 20:44:00,59.4,23.6,17.72,ENE,72,0.0,0.0,25,0.00,,---,0.00,VWS V13.01,2013-06-19 00:44:00,
2013-06-18 20:49:00,59.0,23.2,17.72,ENE,72,0.0,0.0,25,0.00,,---,0.00,VWS V13.01,2013-06-19 00:49:00,
2013-06-18 20:54:00,58.8,23.1,17.72,ENE,72,0.0,0.0,25,0.00,,---,0.00,VWS V13.01,2013-06-19 00:54:00,
2013-06-18 20:59:00,58.6,22.9,17.72,ENE,72,0.0,0.0,25,0.00,,---,0.00,VWS V13.01,2013-06-19 00:59:00,
2013-06-18 21:04:00,58.5,22.8,17.72,ENE,72,0.0,0.0,25,0.00,,---,0.00,VWS V13.01,2013-06-19 01:04:00,
2013-06-18 21:09:00,58.1,22.5,17.72,ENE,72,0.0,0.0,25,0.00,,---,0.00,VWS V13.01,2013-06-19 01:09:00,
2013-06-18 21:14:00,57.9,23.3,17.72,ENE,72,0.0,0.0,26,0.00,,---,0.00,VWS V13.01,2013-06-19 01:14:00,
2013-06-18 21:19:00,57.7,23.1,17.72,ENE,72,0.0,0.0,26,0.00,,---,0.00,VWS V13.01,2013-06-19 01:19:00,
2013-06-18 21:24:00,57.6,23.0,17.72,ENE,72,0.0,0.0,26,0.00,,---,0.00,VWS V13.01,2013-06-19 01:24:00,
2013-06-18 21:29:00,57.4,22.8,17.72,ENE,72,0.0,0.0,26,0.00,,---,0.00,VWS V13.01,2013-06-19 01:29:00,
2013-06-18 21:34:00,57.2,24.4,17.72,ENE,72,0.0,0.0,28,0.00,,---,0.00,VWS V13.01,2013-06-19 01:34:00,
2013-06-18 21:39:00,57.0,28.2,17.72,ENE,72,0.0,0.0,33,0.00,,---,0.00,VWS V13.01,2013-06-19 01:39:00,
2013-06-18 21:44:00,56.8,27.3,17.72,ENE,72,0.0,0.0,32,0.00,,---,0.00,VWS V13.01,2013-06-19 01:44:00,
2013-06-18 21:49:00,56.8,29.5,17.72,ENE,72,0.0,0.0,35,0.00,,---,0.00,VWS V13.01,2013-06-19 01:49:00,
2013-06-18 21:54:00,56.8,29.5,17.72,ENE,72,0.0,0.0,35,0.00,,---,0.00,VWS V13.01,2013-06-19 01:54:00,
2013-06-18 21:59:00,56.7,28.6,17.72,ENE,72,0.0,0.0,34,0.00,,---,0.00,VWS V13.01,2013-06-19 01:59:00,
2013-06-18 22:04:00,56.7,27.9,17.72,ENE,72,0.0,0.0,33,0.00,,---,0.00,VWS V13.01,2013-06-19 02:04:00,
2013-06-18 22:09:00,56.7,27.9,17.72,ENE,72,0.0,0.0,33,0.00,,---,0.00,VWS V13.01,2013-06-19 02:09:00,
2013-06-18 22:14:00,56.7,27.9,17.72,ENE,72,0.0,0.0,33,0.00,,---,0.00,VWS V13.01,2013-06-19 02:14:00,
2013-06-18 22:19:00,56.5,27.8,17.72,ENE,72,0.0,0.0,33,0.00,,---,0.00,VWS V13.01,2013-06-19 02:19:00,
2013-06-18 22:24:00,56.3,27.6,17.72,ENE,72,0.0,0.0,33,0.00,,---,0.00,VWS V13.01,2013-06-19 02:24:00,
2013-06-18 22:29:00,56.3,28.3,17.72,ENE,72,0.0,0.0,34,0.00,,---,0.00,VWS V13.01,2013-06-19 02:29:00,
2013-06-18 22:34:00,56.3,28.3,17.72,ENE,72,0.0,0.0,34,0.00,,---,0.00,VWS V13.01,2013-06-19 02:34:00,
2013-06-18 22:39:00,56.1,28.1,17.72,ENE,72,0.0,0.0,34,0.00,,---,0.00,VWS V13.01,2013-06-19 02:39:00,
2013-06-18 22:44:00,55.9,28.7,17.72,ENE,72,0.0,0.0,35,0.00,,---,0.00,VWS V13.01,2013-06-19 02:44:00,
2013-06-18 22:49:00,55.8,28.5,17.72,ENE,72,0.0,0.0,35,0.00,,---,0.00,VWS V13.01,2013-06-19 02:49:00,
2013-06-18 22:54:00,55.8,28.5,17.72,ENE,72,0.0,0.0,35,0.00,,---,0.00,VWS V13.01,2013-06-19 02:54:00,
2013-06-18 22:59:00,55.4,28.2,17.72,ENE,72,0.0,0.0,35,0.00,,---,0.00,VWS V13.01,2013-06-19 02:59:00,
2013-06-18 23:04:00,55.4,28.2,17.72,ENE,72,0.0,0.0,35,0.00,,---,0.00,VWS V13.01,2013-06-19 03:04:00,
2013-06-18 23:09:00,55.2,28.1,17.72,ENE,72,0.0,0.0,35,0.00,,---,0.00,VWS V13.01,2013-06-19 03:09:00,
2013-06-18 23:14:00,55.2,28.1,17.72,ENE,72,0.0,0.0,35,0.00,,---,0.00,VWS V13.01,2013-06-19 03:14:00,
2013-06-18 23:19:00,55.0,28.6,17.72,ENE,72,0.0,0.0,36,0.00,,---,0.00,VWS V13.01,2013-06-19 03:19:00,
2013-06-18 23:24:00,54.9,28.4,17.72,ENE,72,0.0,0.0,36,0.00,,---,0.00,VWS V13.01,2013-06-19 03:24:00,
2013-06-18 23:29:00,54.9,28.4,17.72,ENE,72,0.0,0.0,36,0.00,,---,0.00,VWS V13.01,2013-06-19 03:29:00,
2013-06-18 23:34:00,54.7,28.3,17.72,ENE,72,0.0,0.0,36,0.00,,---,0.00,VWS V13.01,2013-06-19 03:34:00,
2013-06-18 23:39:00,54.7,28.3,17.72,ENE,72,0.0,0.0,36,0.00,,---,0.00,VWS V13.01,2013-06-19 03:39:00,
2013-06-18 23:44:00,54.7,28.3,17.72,ENE,72,0.0,0.0,36,0.00,,---,0.00,VWS V13.01,2013-06-19 03:44:00,
2013-06-18 23:49:00,54.7,28.3,17.72,ENE,72,0.0,0.0,36,0.00,,---,0.00,VWS V13.01,2013-06-19 03:49:00,
2013-06-18 23:54:00,54.7,28.3,17.72,ENE,72,0.0,0.0,36,0.00,,---,0.00,VWS V13.01,2013-06-19 03:54:00,
2013-06-18 23:59:00,54.7,28.3,17.72,ENE,72,0.0,0.0,36,0.00,,---,0.00,VWS V13.01,2013-06-19 03:59:00,